NOZ1514 ENGM-EKVG

Flight info

Callsign NOZ1514
Flight time 1h 32m
Altitude 34000
Route ATLAP DCT ERSER/M076F340 DCT ROBUR
Aircraft B738/M-SDE2E3FGHIRWXY/LB1

Departure

Time 2026-05-08 17:19
Airport Oslo-Gardermoen International Airport (ENGM)

Arrival

Time 2026-05-08 18:51
Airport Vágar Airport (EKVG)
Time Latitude Longitude Altitude Speed Heading
2026-05-08 16:41 60.19516 11.09820 690 ft 0 kts 180°
2026-05-08 17:09 60.19521 11.09820 690 ft 2 kts 180°
2026-05-08 17:09 60.19536 11.09820 689 ft 2 kts 180°
2026-05-08 17:10 60.19549 11.09820 689 ft 0 kts 180°
2026-05-08 17:10 60.19550 11.09820 689 ft 0 kts 180°
2026-05-08 17:12 60.19547 11.09808 689 ft 2 kts 272°
2026-05-08 17:12 60.19612 11.09705 686 ft 19 kts 320°
2026-05-08 17:12 60.19671 11.09475 684 ft 16 kts 284°
2026-05-08 17:13 60.19701 11.09262 684 ft 15 kts 285°
2026-05-08 17:13 60.19729 11.09067 684 ft 14 kts 286°
2026-05-08 17:13 60.19755 11.08895 686 ft 11 kts 288°
2026-05-08 17:13 60.19775 11.08752 686 ft 10 kts 290°
2026-05-08 17:14 60.19839 11.08708 687 ft 13 kts 15°
2026-05-08 17:14 60.19949 11.08769 687 ft 21 kts 16°
2026-05-08 17:14 60.20124 11.08870 687 ft 25 kts 15°
2026-05-08 17:14 60.20290 11.08966 685 ft 25 kts 16°
2026-05-08 17:15 60.20459 11.09063 684 ft 24 kts 14°
2026-05-08 17:15 60.20628 11.09160 684 ft 25 kts 15°
2026-05-08 17:15 60.20798 11.09264 685 ft 24 kts 17°
2026-05-08 17:15 60.20971 11.09361 687 ft 27 kts 15°
2026-05-08 17:16 60.21145 11.09459 690 ft 25 kts 17°
2026-05-08 17:16 60.21308 11.09556 693 ft 23 kts 14°
2026-05-08 17:16 60.21444 11.09632 696 ft 16 kts 14°
2026-05-08 17:16 60.21539 11.09553 693 ft 15 kts 295°
2026-05-08 17:17 60.21567 11.09363 691 ft 13 kts 286°
2026-05-08 17:17 60.21583 11.09184 691 ft 12 kts 264°
2026-05-08 17:17 60.21542 11.09128 691 ft 0 kts 195°
2026-05-08 17:18 60.21503 11.09107 691 ft 22 kts 195°
2026-05-08 17:19 60.21090 11.08867 687 ft 98 kts 197°
2026-05-08 17:19 60.20215 11.08364 697 ft 158 kts 197°
2026-05-08 17:19 60.19124 11.07749 1340 ft 168 kts 196°
2026-05-08 17:19 60.17999 11.07130 2237 ft 171 kts 197°
2026-05-08 17:20 60.16920 11.06247 2927 ft 173 kts 212°
2026-05-08 17:20 60.16043 11.04451 3322 ft 195 kts 236°
2026-05-08 17:20 60.15494 11.01794 3669 ft 220 kts 248°
2026-05-08 17:20 60.14997 10.98809 4342 ft 226 kts 247°
2026-05-08 17:21 60.14492 10.95868 5200 ft 225 kts 248°
2026-05-08 17:21 60.14066 10.92830 5758 ft 239 kts 256°
2026-05-08 17:21 60.13916 10.89401 6411 ft 252 kts 266°
2026-05-08 17:21 60.13954 10.85848 7028 ft 264 kts 269°
2026-05-08 17:22 60.14032 10.82149 7816 ft 268 kts 269°
2026-05-08 17:22 60.14094 10.78425 8631 ft 271 kts 268°
2026-05-08 17:22 60.14140 10.74610 9461 ft 273 kts 268°
2026-05-08 17:22 60.14175 10.70797 10237 ft 277 kts 267°
2026-05-08 17:23 60.14207 10.66932 10825 ft 285 kts 268°
2026-05-08 17:23 60.14241 10.62832 11193 ft 299 kts 268°
2026-05-08 17:23 60.14273 10.58563 11543 ft 314 kts 268°
2026-05-08 17:23 60.14303 10.54091 11929 ft 327 kts 268°
2026-05-08 17:24 60.14337 10.49499 12534 ft 333 kts 268°
2026-05-08 17:24 60.14373 10.44868 13145 ft 337 kts 269°
2026-05-08 17:24 60.14408 10.40116 13803 ft 340 kts 269°
2026-05-08 17:24 60.14440 10.35417 14407 ft 344 kts 269°
2026-05-08 17:25 60.14470 10.30544 15037 ft 347 kts 268°
2026-05-08 17:25 60.14497 10.25759 15625 ft 351 kts 268°
2026-05-08 17:25 60.14523 10.20843 16273 ft 353 kts 268°
2026-05-08 17:25 60.14547 10.15894 16853 ft 356 kts 268°
2026-05-08 17:26 60.14570 10.10943 17497 ft 358 kts 268°
2026-05-08 17:26 60.14589 10.05951 18145 ft 358 kts 268°
2026-05-08 17:26 60.14608 10.00919 18732 ft 360 kts 268°
2026-05-08 17:26 60.14622 9.95885 19247 ft 364 kts 268°
2026-05-08 17:27 60.14632 9.90817 19772 ft 367 kts 268°
2026-05-08 17:27 60.14674 9.85668 20245 ft 372 kts 270°
2026-05-08 17:27 60.14896 9.80489 20753 ft 377 kts 276°
2026-05-08 17:27 60.15453 9.75292 21254 ft 381 kts 282°
2026-05-08 17:28 60.16197 9.70185 21758 ft 385 kts 284°
2026-05-08 17:28 60.17043 9.65151 22231 ft 388 kts 287°
2026-05-08 17:28 60.18007 9.60012 22748 ft 390 kts 288°
2026-05-08 17:28 60.18985 9.54950 23233 ft 392 kts 288°
2026-05-08 17:29 60.19964 9.49819 23639 ft 396 kts 288°
2026-05-08 17:29 60.20937 9.44630 24028 ft 400 kts 288°
2026-05-08 17:29 60.21914 9.39326 24528 ft 401 kts 287°
2026-05-08 17:29 60.22870 9.34061 24941 ft 404 kts 286°
2026-05-08 17:30 60.23828 9.28717 25385 ft 406 kts 286°
2026-05-08 17:30 60.24767 9.23438 25791 ft 408 kts 285°
2026-05-08 17:30 60.25729 9.17989 26230 ft 410 kts 285°
2026-05-08 17:30 60.26678 9.12592 26636 ft 412 kts 285°
2026-05-08 17:31 60.27628 9.07167 26968 ft 415 kts 285°
2026-05-08 17:31 60.28598 9.01608 27337 ft 418 kts 285°
2026-05-08 17:31 60.29565 8.96043 27702 ft 421 kts 285°
2026-05-08 17:31 60.30530 8.90479 28107 ft 422 kts 285°
2026-05-08 17:32 60.31495 8.84897 28453 ft 425 kts 285°
2026-05-08 17:32 60.32458 8.79311 28852 ft 425 kts 285°
2026-05-08 17:32 60.33439 8.73607 29174 ft 428 kts 285°
2026-05-08 17:32 60.34405 8.67975 29506 ft 430 kts 285°
2026-05-08 17:33 60.35389 8.62209 29830 ft 432 kts 285°
2026-05-08 17:33 60.36348 8.56580 30377 ft 429 kts 285°
2026-05-08 17:33 60.37309 8.50928 30873 ft 427 kts 285°
2026-05-08 17:33 60.38272 8.45246 31312 ft 425 kts 285°
2026-05-08 17:34 60.39231 8.39563 31651 ft 426 kts 285°
2026-05-08 17:34 60.40185 8.33891 32005 ft 425 kts 284°
2026-05-08 17:34 60.41128 8.28278 32391 ft 424 kts 284°
2026-05-08 17:34 60.42076 8.22610 32708 ft 424 kts 284°
2026-05-08 17:35 60.43007 8.17016 33046 ft 423 kts 284°
2026-05-08 17:35 60.43942 8.11390 33394 ft 422 kts 283°
2026-05-08 17:35 60.44870 8.05785 33707 ft 422 kts 283°
2026-05-08 17:35 60.45799 8.00159 33995 ft 422 kts 283°
2026-05-08 17:36 60.46732 7.94490 34148 ft 423 kts 283°
2026-05-08 17:36 60.47654 7.88866 34141 ft 422 kts 284°
2026-05-08 17:36 60.49477 7.77714 34123 ft 419 kts 283°
2026-05-08 17:37 60.51297 7.66499 34116 ft 420 kts 283°
2026-05-08 17:37 60.53116 7.55220 34116 ft 420 kts 283°
2026-05-08 17:38 60.54915 7.44013 34103 ft 419 kts 283°
2026-05-08 17:38 60.56698 7.32845 34114 ft 418 kts 283°
2026-05-08 17:39 60.58486 7.21567 34121 ft 417 kts 283°
2026-05-08 17:39 60.60244 7.10395 34143 ft 417 kts 282°
2026-05-08 17:40 60.61990 6.99202 34161 ft 416 kts 282°
2026-05-08 17:40 60.63729 6.88000 34141 ft 416 kts 282°
2026-05-08 17:41 60.65461 6.76769 34205 ft 422 kts 282°
2026-05-08 17:41 60.66334 6.71072 34351 ft 424 kts 282°
2026-05-08 17:41 60.67218 6.65299 34618 ft 422 kts 282°
2026-05-08 17:42 60.68084 6.59637 34892 ft 420 kts 282°
2026-05-08 17:42 60.68948 6.53965 35101 ft 419 kts 282°
2026-05-08 17:42 60.69800 6.48347 35234 ft 420 kts 282°
2026-05-08 17:42 60.70657 6.42671 35382 ft 420 kts 283°
2026-05-08 17:43 60.71515 6.36977 35562 ft 419 kts 283°
2026-05-08 17:43 60.72363 6.31326 35728 ft 418 kts 282°
2026-05-08 17:43 60.73208 6.25678 35921 ft 416 kts 282°
2026-05-08 17:43 60.74049 6.20041 36063 ft 415 kts 282°
2026-05-08 17:44 60.75722 6.08739 36094 ft 418 kts 282°
2026-05-08 17:44 60.77381 5.97456 36093 ft 416 kts 282°
2026-05-08 17:45 60.79033 5.86150 36110 ft 415 kts 282°
2026-05-08 17:45 60.80677 5.74809 36119 ft 417 kts 282°
2026-05-08 17:46 60.82309 5.63497 36121 ft 416 kts 282°
2026-05-08 17:46 60.83936 5.52149 36122 ft 416 kts 282°
2026-05-08 17:47 60.85559 5.40756 36126 ft 415 kts 282°
2026-05-08 17:47 60.86892 5.31333 36129 ft 415 kts 281°
2026-05-08 17:48 60.88752 5.18094 36140 ft 415 kts 281°
2026-05-08 17:48 60.90340 5.06690 36143 ft 416 kts 281°
2026-05-08 17:49 60.91915 4.95310 36137 ft 416 kts 281°
2026-05-08 17:49 60.93485 4.83890 36136 ft 415 kts 281°
2026-05-08 17:50 60.95042 4.72478 36125 ft 415 kts 281°
2026-05-08 17:50 60.96587 4.61078 36132 ft 414 kts 281°
2026-05-08 17:51 60.98118 4.49704 36100 ft 412 kts 281°
2026-05-08 17:51 60.99645 4.38267 36103 ft 414 kts 281°
2026-05-08 17:52 61.01157 4.26859 36102 ft 413 kts 280°
2026-05-08 17:53 61.03413 4.09682 36093 ft 415 kts 280°
2026-05-08 17:53 61.04896 3.98295 36083 ft 414 kts 280°
2026-05-08 17:54 61.06380 3.86805 36081 ft 414 kts 280°
2026-05-08 17:54 61.07843 3.75394 36072 ft 414 kts 280°
2026-05-08 17:55 61.09306 3.63898 36074 ft 413 kts 280°
2026-05-08 17:55 61.10750 3.52471 36065 ft 414 kts 280°
2026-05-08 17:56 61.12198 3.40916 36061 ft 413 kts 280°
2026-05-08 17:56 61.13622 3.29474 36061 ft 411 kts 279°
2026-05-08 17:57 61.15038 3.18002 36050 ft 413 kts 279°
2026-05-08 17:57 61.16444 3.06511 36044 ft 412 kts 279°
2026-05-08 17:58 61.17835 2.95068 36034 ft 413 kts 279°
2026-05-08 17:58 61.19221 2.83562 36032 ft 414 kts 279°
2026-05-08 17:59 61.20603 2.72012 36022 ft 414 kts 279°
2026-05-08 17:59 61.21977 2.60437 36019 ft 414 kts 279°
2026-05-08 18:00 61.23334 2.48908 36019 ft 414 kts 279°
2026-05-08 18:00 61.25364 2.31498 36017 ft 414 kts 278°
2026-05-08 18:01 61.26699 2.19925 36004 ft 413 kts 278°
2026-05-08 18:01 61.28022 2.08347 35998 ft 414 kts 278°
2026-05-08 18:02 61.29339 1.96741 35994 ft 414 kts 278°
2026-05-08 18:02 61.30644 1.85142 35992 ft 415 kts 278°
2026-05-08 18:03 61.31948 1.73446 35998 ft 415 kts 278°
2026-05-08 18:03 61.33242 1.61752 35989 ft 415 kts 278°
2026-05-08 18:04 61.34528 1.50012 35984 ft 417 kts 278°
2026-05-08 18:04 61.35803 1.38284 35986 ft 417 kts 278°
2026-05-08 18:05 61.37062 1.26609 35976 ft 417 kts 277°
2026-05-08 18:05 61.38318 1.14850 35981 ft 416 kts 277°
2026-05-08 18:06 61.39568 1.03038 35974 ft 417 kts 277°
2026-05-08 18:06 61.40811 0.91188 35960 ft 418 kts 278°
2026-05-08 18:07 61.42038 0.79376 35955 ft 419 kts 278°
2026-05-08 18:07 61.43256 0.67555 35945 ft 419 kts 278°
2026-05-08 18:08 61.44473 0.55644 35947 ft 419 kts 278°
2026-05-08 18:08 61.45671 0.43789 35934 ft 420 kts 278°
2026-05-08 18:09 61.46869 0.31822 35932 ft 421 kts 277°
2026-05-08 18:09 61.48058 0.19846 35925 ft 421 kts 277°
2026-05-08 18:10 61.49225 0.07967 35926 ft 421 kts 277°
2026-05-08 18:10 61.50386 -0.04099 35932 ft 421 kts 277°
2026-05-08 18:11 61.51399 -0.16061 35913 ft 420 kts 276°
2026-05-08 18:11 61.52361 -0.28114 35910 ft 420 kts 276°
2026-05-08 18:12 61.53314 -0.40117 35907 ft 420 kts 276°
2026-05-08 18:12 61.54269 -0.52172 35907 ft 421 kts 276°
2026-05-08 18:13 61.55220 -0.64236 35902 ft 420 kts 276°
2026-05-08 18:13 61.56165 -0.76320 35892 ft 417 kts 275°
2026-05-08 18:14 61.57098 -0.88392 35883 ft 422 kts 275°
2026-05-08 18:14 61.58027 -1.00556 35882 ft 422 kts 275°
2026-05-08 18:15 61.58941 -1.12661 35875 ft 421 kts 275°
2026-05-08 18:15 61.59843 -1.24776 35869 ft 421 kts 276°
2026-05-08 18:16 61.60733 -1.36889 35871 ft 420 kts 276°
2026-05-08 18:16 61.61608 -1.48930 35873 ft 421 kts 276°
2026-05-08 18:17 61.62483 -1.61134 35855 ft 421 kts 276°
2026-05-08 18:17 61.63346 -1.73311 35859 ft 422 kts 275°
2026-05-08 18:18 61.64191 -1.85412 35854 ft 422 kts 275°
2026-05-08 18:18 61.65036 -1.97655 35837 ft 422 kts 275°
2026-05-08 18:19 61.65866 -2.09847 35853 ft 421 kts 275°
2026-05-08 18:19 61.66680 -2.21989 35839 ft 421 kts 275°
2026-05-08 18:20 61.67488 -2.34181 35840 ft 421 kts 275°
2026-05-08 18:20 61.68282 -2.46349 35839 ft 421 kts 275°
2026-05-08 18:21 61.69067 -2.58547 35843 ft 421 kts 275°
2026-05-08 18:21 61.69835 -2.70659 35837 ft 421 kts 275°
2026-05-08 18:22 61.70599 -2.82906 35832 ft 423 kts 275°
2026-05-08 18:22 61.71354 -2.95140 35832 ft 422 kts 275°
2026-05-08 18:23 61.72096 -3.07363 35798 ft 421 kts 275°
2026-05-08 18:23 61.72461 -3.13440 35423 ft 420 kts 275°
2026-05-08 18:23 61.72861 -3.19480 35161 ft 413 kts 276°
2026-05-08 18:24 61.73252 -3.25447 34572 ft 414 kts 275°
2026-05-08 18:24 61.73612 -3.31448 34009 ft 414 kts 274°
2026-05-08 18:24 61.73959 -3.37452 33463 ft 414 kts 274°
2026-05-08 18:24 61.74299 -3.43455 32996 ft 414 kts 274°
2026-05-08 18:25 61.74635 -3.49441 32499 ft 415 kts 274°
2026-05-08 18:25 61.74973 -3.55511 31971 ft 417 kts 274°
2026-05-08 18:25 61.75313 -3.61616 31459 ft 418 kts 274°
2026-05-08 18:25 61.75645 -3.67623 30959 ft 419 kts 273°
2026-05-08 18:26 61.75982 -3.73744 30411 ft 420 kts 272°
2026-05-08 18:26 61.76312 -3.79801 29835 ft 421 kts 272°
2026-05-08 18:26 61.76644 -3.85931 29270 ft 421 kts 273°
2026-05-08 18:26 61.76974 -3.92041 28709 ft 420 kts 273°
2026-05-08 18:27 61.77300 -3.98142 28169 ft 419 kts 273°
2026-05-08 18:27 61.77518 -4.02239 27803 ft 419 kts 273°
2026-05-08 18:27 61.77943 -4.10307 27053 ft 416 kts 273°
2026-05-08 18:27 61.78262 -4.16402 26497 ft 413 kts 273°
2026-05-08 18:28 61.78571 -4.22351 25963 ft 409 kts 272°
2026-05-08 18:28 61.78875 -4.28284 25430 ft 405 kts 273°
2026-05-08 18:28 61.79176 -4.34182 24915 ft 401 kts 273°
2026-05-08 18:28 61.79465 -4.39931 24369 ft 397 kts 273°
2026-05-08 18:29 61.79753 -4.45689 23866 ft 392 kts 273°
2026-05-08 18:29 61.80037 -4.51434 23355 ft 387 kts 274°
2026-05-08 18:29 61.80311 -4.57034 22840 ft 383 kts 274°
2026-05-08 18:29 61.80579 -4.62552 22366 ft 377 kts 274°
2026-05-08 18:30 61.80844 -4.68046 21866 ft 373 kts 273°
2026-05-08 18:30 61.81106 -4.73532 21398 ft 368 kts 273°
2026-05-08 18:30 61.81358 -4.78861 20926 ft 363 kts 274°
2026-05-08 18:30 61.81603 -4.84073 20456 ft 358 kts 274°
2026-05-08 18:31 61.81846 -4.89285 20013 ft 353 kts 274°
2026-05-08 18:31 61.82084 -4.94452 19531 ft 350 kts 274°
2026-05-08 18:31 61.82318 -4.99549 19077 ft 345 kts 274°
2026-05-08 18:31 61.82543 -5.04480 18644 ft 339 kts 274°
2026-05-08 18:32 61.82766 -5.09437 18197 ft 334 kts 274°
2026-05-08 18:32 61.82983 -5.14288 17789 ft 329 kts 274°
2026-05-08 18:32 61.83195 -5.19070 17346 ft 324 kts 274°
2026-05-08 18:32 61.83400 -5.23732 16947 ft 319 kts 274°
2026-05-08 18:33 61.83603 -5.28370 16542 ft 314 kts 274°
2026-05-08 18:33 61.83803 -5.32968 16131 ft 310 kts 275°
2026-05-08 18:33 61.83995 -5.37443 15735 ft 305 kts 274°
2026-05-08 18:33 61.84185 -5.41874 15350 ft 301 kts 275°
2026-05-08 18:34 61.84372 -5.46289 14940 ft 297 kts 275°
2026-05-08 18:34 61.84552 -5.50570 14571 ft 293 kts 274°
2026-05-08 18:34 61.84731 -5.54868 14185 ft 289 kts 275°
2026-05-08 18:34 61.84906 -5.59087 13811 ft 286 kts 275°
2026-05-08 18:35 61.85076 -5.63226 13460 ft 282 kts 275°
2026-05-08 18:35 61.85244 -5.67348 13099 ft 279 kts 274°
2026-05-08 18:35 61.85409 -5.71404 12719 ft 276 kts 274°
2026-05-08 18:35 61.85571 -5.75420 12382 ft 273 kts 274°
2026-05-08 18:36 61.85728 -5.79376 12026 ft 271 kts 274°
2026-05-08 18:36 61.85886 -5.83352 11653 ft 269 kts 274°
2026-05-08 18:36 61.86041 -5.87270 11298 ft 267 kts 275°
2026-05-08 18:36 61.86192 -5.91135 10981 ft 263 kts 275°
2026-05-08 18:37 61.86341 -5.94996 10630 ft 261 kts 275°
2026-05-08 18:37 61.86488 -5.98791 10306 ft 259 kts 275°
2026-05-08 18:37 61.86633 -6.02589 9956 ft 257 kts 275°
2026-05-08 18:37 61.86774 -6.06314 9790 ft 249 kts 275°
2026-05-08 18:38 61.86908 -6.09872 9547 ft 245 kts 275°
2026-05-08 18:38 61.87043 -6.13477 9217 ft 244 kts 275°
2026-05-08 18:38 61.87175 -6.17012 8912 ft 242 kts 276°
2026-05-08 18:38 61.87306 -6.20567 8617 ft 239 kts 276°
2026-05-08 18:39 61.87433 -6.24054 8318 ft 237 kts 276°
2026-05-08 18:39 61.87558 -6.27468 8029 ft 234 kts 277°
2026-05-08 18:39 61.87682 -6.30914 7727 ft 232 kts 277°
2026-05-08 18:39 61.87804 -6.34306 7440 ft 230 kts 277°
2026-05-08 18:40 61.87923 -6.37645 7152 ft 228 kts 277°
2026-05-08 18:40 61.88042 -6.40978 6884 ft 225 kts 277°
2026-05-08 18:40 61.88158 -6.44255 6660 ft 220 kts 277°
2026-05-08 18:40 61.88270 -6.47472 6389 ft 218 kts 278°
2026-05-08 18:41 61.88380 -6.50647 6122 ft 215 kts 278°
2026-05-08 18:41 61.88489 -6.53772 5857 ft 213 kts 278°
2026-05-08 18:41 61.88623 -6.56890 5567 ft 211 kts 283°
2026-05-08 18:41 61.89057 -6.59788 5315 ft 205 kts 299°
2026-05-08 18:42 61.89756 -6.62397 5070 ft 201 kts 302°
2026-05-08 18:42 61.90448 -6.64954 4842 ft 198 kts 301°
2026-05-08 18:42 61.91098 -6.67484 4720 ft 190 kts 300°
2026-05-08 18:42 61.91707 -6.69907 4665 ft 186 kts 300°
2026-05-08 18:43 61.92303 -6.72296 4597 ft 178 kts 299°
2026-05-08 18:43 61.92863 -6.74546 4554 ft 169 kts 300°
2026-05-08 18:43 61.93391 -6.76669 4516 ft 156 kts 300°
2026-05-08 18:43 61.93882 -6.78649 4448 ft 145 kts 300°
2026-05-08 18:44 61.94331 -6.80477 4395 ft 136 kts 300°
2026-05-08 18:44 61.94768 -6.82263 4358 ft 138 kts 301°
2026-05-08 18:44 61.95219 -6.84050 4312 ft 137 kts 302°
2026-05-08 18:44 61.95711 -6.85800 4273 ft 136 kts 304°
2026-05-08 18:45 61.96217 -6.87437 4217 ft 128 kts 306°
2026-05-08 18:45 61.96707 -6.88918 4155 ft 117 kts 308°
2026-05-08 18:45 61.97224 -6.90360 4144 ft 127 kts 309°
2026-05-08 18:45 61.97791 -6.91832 4094 ft 129 kts 310°
2026-05-08 18:46 61.98370 -6.93299 4043 ft 130 kts 311°
2026-05-08 18:46 61.98946 -6.94753 3995 ft 129 kts 311°
2026-05-08 18:46 61.99514 -6.96182 3954 ft 121 kts 311°
2026-05-08 18:46 62.00061 -6.97563 3763 ft 123 kts 311°
2026-05-08 18:47 62.00606 -6.98937 3533 ft 120 kts 312°
2026-05-08 18:47 62.01130 -7.00255 3335 ft 116 kts 312°
2026-05-08 18:47 62.01654 -7.01574 3152 ft 116 kts 311°
2026-05-08 18:47 62.02186 -7.02917 2991 ft 126 kts 311°
2026-05-08 18:48 62.02755 -7.04359 2745 ft 125 kts 311°
2026-05-08 18:48 62.03300 -7.05743 2540 ft 121 kts 310°
2026-05-08 18:48 62.03794 -7.07134 2342 ft 117 kts 304°
2026-05-08 18:48 62.04052 -7.08792 2168 ft 119 kts 287°
2026-05-08 18:49 62.04111 -7.10528 2018 ft 114 kts 287°
2026-05-08 18:49 62.04246 -7.12235 1851 ft 118 kts 290°
2026-05-08 18:49 62.04379 -7.13987 1708 ft 119 kts 285°
2026-05-08 18:49 62.04471 -7.15700 1490 ft 116 kts 289°
2026-05-08 18:50 62.04602 -7.17401 1291 ft 118 kts 289°
2026-05-08 18:50 62.04717 -7.19136 1090 ft 121 kts 285°
2026-05-08 18:50 62.04811 -7.20888 925 ft 116 kts 288°
2026-05-08 18:50 62.04987 -7.22598 646 ft 121 kts 300°
2026-05-08 18:51 62.05425 -7.24010 559 ft 110 kts 308°
2026-05-08 18:51 62.05805 -7.25493 353 ft 117 kts 303°
2026-05-08 18:51 62.06172 -7.26978 295 ft 89 kts 296°
2026-05-08 18:51 62.06327 -7.27600 295 ft 29 kts 298°
2026-05-08 18:52 62.06412 -7.27947 295 ft 15 kts 299°
2026-05-08 18:52 62.06450 -7.28086 295 ft 10 kts 303°
2026-05-08 18:52 62.06506 -7.28114 295 ft 7 kts 17°
2026-05-08 18:52 62.06546 -7.28087 295 ft 4 kts 16°
2026-05-08 18:53 62.06576 -7.28074 295 ft 9 kts
2026-05-08 18:53 62.06638 -7.28055 295 ft 9 kts 43°
2026-05-08 18:53 62.06661 -7.27951 294 ft 6 kts 47°
2026-05-08 18:53 62.06675 -7.27930 295 ft 1 kts 29°
2026-05-08 18:54 62.06681 -7.27923 295 ft 0 kts 28°